This is the latest recevied weather packets stored in our database for station/object VA3XLT-1. If no packets are shown the sender has not sent any weather packets the latest 10 day(s).
| Time | Temp. | Humidity | Pressure | Rain* | Wind** | Luminosity | Snow |
|---|---|---|---|---|---|---|---|
| 1777910260 | 20° C | 51% | 1004.7 hPa | 0 mm | - | - | - |
| 1777909960 | 20° C | 52% | 1004.8 hPa | 0 mm | - | - | - |
| 1777909660 | 19.44° C | 52% | 1004.8 hPa | 0 mm | - | - | - |
| 1777909360 | 20° C | 53% | 1004.7 hPa | 0 mm | - | - | - |
| 1777909060 | 19.44° C | 56% | 1004.8 hPa | 0 mm | - | - | - |
| 1777908760 | 18.89° C | 55% | 1004.8 hPa | 0 mm | - | - | - |
| 1777908460 | 18.89° C | 55% | 1004.8 hPa | 0 mm | - | - | - |
| 1777908160 | 18.33° C | 56% | 1004.8 hPa | 0 mm | - | - | - |
| 1777907860 | 18.33° C | 58% | 1004.8 hPa | 0 mm | - | - | - |
| 1777907560 | 18.33° C | 57% | 1004.9 hPa | 0 mm | - | - | - |
| 1777907260 | 17.78° C | 59% | 1004.8 hPa | 0 mm | - | - | - |
| 1777906960 | 17.78° C | 58% | 1004.8 hPa | 0 mm | - | - | - |
| 1777906660 | 17.22° C | 60% | 1004.8 hPa | 0 mm | - | - | - |
| 1777906360 | 17.22° C | 60% | 1004.8 hPa | 0 mm | - | - | - |
| 1777906060 | 16.67° C | 60% | 1004.8 hPa | 0 mm | - | - | - |
| 1777905760 | 16.67° C | 62% | 1004.9 hPa | 0 mm | - | - | - |
| 1777905460 | 16.67° C | 62% | 1004.9 hPa | 0 mm | - | - | - |
| 1777905160 | 16.11° C | 61% | 1004.9 hPa | 0 mm | - | - | - |
| 1777904860 | 16.11° C | 62% | 1004.9 hPa | 0 mm | - | - | - |
| 1777904560 | 16.11° C | 62% | 1005 hPa | 0 mm | - | - | - |
| 1777904260 | 16.11° C | 63% | 1005 hPa | 0 mm | - | - | - |
| 1777903960 | 16.11° C | 64% | 1005.1 hPa | 0 mm | - | - | - |
| 1777903660 | 16.11° C | 64% | 1005.2 hPa | 0 mm | - | - | - |
| 1777903360 | 15.56° C | 64% | 1005.4 hPa | 0 mm | - | - | - |
| 1777903060 | 15.56° C | 64% | 1005.4 hPa | 0 mm | - | - | - |
* Rain latest hour (hover to see other rain measurements)
** Current wind speed in m/s (hover to see current wind gust speed)